This is the latest recevied weather packets stored in our database for station/object KF3BH. If no packets are shown the sender has not sent any weather packets the latest 10 day(s).
| Time | Temp. | Humidity | Pressure | Rain* | Wind** | Luminosity | Snow |
|---|---|---|---|---|---|---|---|
| 1777791025 | 4.44° C | 69% | 1013.5 hPa | 0 mm | - | 0 W/m² | - |
| 1777788625 | 5° C | 68% | 1013.7 hPa | 0 mm | - | 0 W/m² | - |
| 1777786825 | 5° C | 68% | 1013.8 hPa | 0 mm | - | 0 W/m² | - |
| 1777785025 | 5.56° C | 67% | 1014.1 hPa | 0 mm | - | 0 W/m² | - |
| 1777783825 | 5.56° C | 65% | 1014.2 hPa | 0 mm | - | 0 W/m² | - |
| 1777780825 | 6.11° C | 64% | 1014.4 hPa | 0 mm | - | 0 W/m² | - |
| 1777778425 | 6.67° C | 62% | 1014.3 hPa | 0 mm | - | 0 W/m² | - |
| 1777775425 | 6.67° C | 70% | 1014.3 hPa | 0 mm | - | 0 W/m² | - |
| 1777771226 | 7.78° C | 63% | 1014.2 hPa | 0 mm | - | 0 W/m² | - |
| 1777769425 | 7.78° C | 59% | 1013.8 hPa | 0 mm | - | 0 W/m² | - |
| 1777768825 | 8.33° C | 59% | 1013.7 hPa | 0 mm | - | 0 W/m² | - |
| 1777765825 | 8.33° C | 60% | 1013.3 hPa | 0 mm | - | 0 W/m² | - |
| 1777762825 | 9.44° C | 49% | 1013 hPa | 0 mm | - | 11 W/m² | - |
| 1777762225 | 10° C | 49% | 1013.1 hPa | 0 mm | - | 19 W/m² | - |
| 1777761625 | 10° C | 49% | 1013.1 hPa | 0 mm | - | 44 W/m² | - |
| 1777761025 | 10.56° C | 49% | 1012.9 hPa | 0 mm | - | 91 W/m² | - |
| 1777758626 | 10° C | 49% | 1012.9 hPa | 0 mm | - | 32 W/m² | - |
| 1777756225 | 12.22° C | 44% | 1012.4 hPa | 0 mm | - | 504 W/m² | - |
| 1777750225 | 12.22° C | 42% | 1013.3 hPa | 0 mm | - | 285 W/m² | - |
| 1777749625 | 12.22° C | 42% | 1013.4 hPa | 0 mm | - | 330 W/m² | - |
| 1777747225 | 11.11° C | 42% | 1013.8 hPa | 0 mm | - | 316 W/m² | - |
| 1777746626 | 11.11° C | 45% | 1013.7 hPa | 0 mm | - | 313 W/m² | - |
| 1777741825 | 10.56° C | 46% | 1013.8 hPa | 0 mm | - | 250 W/m² | - |
| 1777738225 | 10.56° C | 48% | 1014.2 hPa | 0 mm | - | 974 W/m² | - |
| 1777737625 | 10.56° C | 49% | 1014.2 hPa | 0 mm | - | 246 W/m² | - |
* Rain latest hour (hover to see other rain measurements)
** Current wind speed in m/s (hover to see current wind gust speed)